����������;��������(kWh)
2019-10-28 00:00;78,25
2019-10-28 00:15;79
2019-10-28 00:30;78,5
2019-10-28 00:45;78,75
2019-10-28 01:00;79,8
2019-10-28 01:15;78,85
2019-10-28 01:30;75,95
2019-10-28 01:45;75,6
2019-10-28 02:00;73,95
2019-10-28 02:15;72,9
2019-10-28 02:30;74,3
2019-10-28 02:45;74,3
2019-10-28 03:00;75,15
2019-10-28 03:15;75,6
2019-10-28 03:30;77,05
2019-10-28 03:45;76,35
2019-10-28 04:00;76,45
2019-10-28 04:15;76,05
2019-10-28 04:30;75,5
2019-10-28 04:45;76,3
2019-10-28 05:00;75,55
2019-10-28 05:15;74,3
2019-10-28 05:30;74,8
2019-10-28 05:45;73,7
2019-10-28 06:00;73,05
2019-10-28 06:15;70
2019-10-28 06:30;69,65
2019-10-28 06:45;65,05
2019-10-28 07:00;65
2019-10-28 07:15;63,55
2019-10-28 07:30;63,75
2019-10-28 07:45;64,4
2019-10-28 08:00;74,8
2019-10-28 08:15;80,1
2019-10-28 08:30;79,85
2019-10-28 08:45;82,75
2019-10-28 09:00;82,8
2019-10-28 09:15;82,75
2019-10-28 09:30;85,55
2019-10-28 09:45;83,05
2019-10-28 10:00;84,7
2019-10-28 10:15;84,35
2019-10-28 10:30;83,35
2019-10-28 10:45;81,1
2019-10-28 11:00;81,75
2019-10-28 11:15;88,65
2019-10-28 11:30;89,45
2019-10-28 11:45;89,85
2019-10-28 12:00;88,55
2019-10-28 12:15;87,1
2019-10-28 12:30;85,3
2019-10-28 12:45;85,45
2019-10-28 13:00;84,15
2019-10-28 13:15;85,45
2019-10-28 13:30;86,75
2019-10-28 13:45;87,75
2019-10-28 14:00;85,55
2019-10-28 14:15;87,6
2019-10-28 14:30;89,45
2019-10-28 14:45;88,65
2019-10-28 15:00;87,7
2019-10-28 15:15;89,85
2019-10-28 15:30;88,15
2019-10-28 15:45;85,75
2019-10-28 16:00;81,65
2019-10-28 16:15;78,6
2019-10-28 16:30;85,3
2019-10-28 16:45;86,2
2019-10-28 17:00;86,9
2019-10-28 17:15;85,7
2019-10-28 17:30;85,8
2019-10-28 17:45;94,15
2019-10-28 18:00;92,3
2019-10-28 18:15;92,55
2019-10-28 18:30;94,5
2019-10-28 18:45;97
2019-10-28 19:00;96,95
2019-10-28 19:15;98,25
2019-10-28 19:30;95,3
2019-10-28 19:45;95,4
2019-10-28 20:00;97,7
2019-10-28 20:15;92,25
2019-10-28 20:30;94,25
2019-10-28 20:45;94,05
2019-10-28 21:00;94,85
2019-10-28 21:15;94,55
2019-10-28 21:30;89,35
2019-10-28 21:45;85,4
2019-10-28 22:00;83,4
2019-10-28 22:15;78,95
2019-10-28 22:30;77,85
2019-10-28 22:45;77,65
2019-10-28 23:00;84,05
2019-10-28 23:15;82
2019-10-28 23:30;82,6
2019-10-28 23:45;88,35
2019-10-29 00:00;77,65
2019-10-29 00:15;78,75
2019-10-29 00:30;156,65
2019-10-29 00:45;79,05
2019-10-29 01:00;78,4
2019-10-29 01:15;76,7
2019-10-29 01:30;77,65
2019-10-29 01:45;81,1
2019-10-29 02:00;78,9
2019-10-29 02:15;73,05
2019-10-29 02:30;73,8
2019-10-29 02:45;74,8
2019-10-29 03:00;76,15
2019-10-29 03:15;75,05
2019-10-29 03:30;75,75
2019-10-29 03:45;75,15
2019-10-29 04:00;75,75
2019-10-29 04:15;76,6
2019-10-29 04:30;77,1
2019-10-29 04:45;74,95
2019-10-29 05:00;73,9
2019-10-29 05:15;74,4
2019-10-29 05:30;73,7
2019-10-29 05:45;75,35
2019-10-29 06:00;73,85
2019-10-29 06:15;72,95
2019-10-29 06:30;72,25
2019-10-29 06:45;71,9
2019-10-29 07:00;74,85
2019-10-29 07:15;73,5
2019-10-29 07:30;77,2
2019-10-29 07:45;85,05
2019-10-29 08:00;88,15
2019-10-29 08:15;91,05
2019-10-29 08:30;100,4
2019-10-29 08:45;106,95
2019-10-29 09:00;118,9
2019-10-29 09:15;130,05
2019-10-29 09:30;134,25
2019-10-29 09:45;137,3
2019-10-29 10:00;142,55
2019-10-29 10:15;144,4
2019-10-29 10:30;144,8
2019-10-29 10:45;146,15
2019-10-29 11:00;152,9
2019-10-29 11:15;159,5
2019-10-29 11:30;162,55
2019-10-29 11:45;158,75
2019-10-29 12:00;158,35
2019-10-29 12:15;161,05
2019-10-29 12:30;160,55
2019-10-29 12:45;163,95
2019-10-29 13:00;164,5
2019-10-29 13:15;161
2019-10-29 13:30;158,7
2019-10-29 13:45;157,3
2019-10-29 14:00;158,1
2019-10-29 14:15;156,5
2019-10-29 14:30;153,3
2019-10-29 14:45;147,75
2019-10-29 15:00;142,85
2019-10-29 15:15;140,9
2019-10-29 15:30;138,35
2019-10-29 15:45;137,55
2019-10-29 16:00;129,7
2019-10-29 16:15;129,2
2019-10-29 16:30;128
2019-10-29 16:45;128,3
2019-10-29 17:00;123,7
2019-10-29 17:15;130,55
2019-10-29 17:30;128,6
2019-10-29 17:45;132,8
2019-10-29 18:00;131,8
2019-10-29 18:15;130,75
2019-10-29 18:30;134,5
2019-10-29 18:45;131,2
2019-10-29 19:00;131,1
2019-10-29 19:15;128,95
2019-10-29 19:30;126,75
2019-10-29 19:45;120,7
2019-10-29 20:00;116,4
2019-10-29 20:15;115,85
2019-10-29 20:30;114,7
2019-10-29 20:45;105,85
2019-10-29 21:00;101,35
2019-10-29 21:15;97,5
2019-10-29 21:30;96,65
2019-10-29 21:45;95,4
2019-10-29 22:00;95,2
2019-10-29 22:15;87
2019-10-29 22:30;87,4
2019-10-29 22:45;93,1
2019-10-29 23:00;87,3
2019-10-29 23:15;92,6
2019-10-29 23:30;91,1
2019-10-29 23:45;81,55
2019-10-30 00:00;80,875
2019-10-30 00:15;80,2
2019-10-30 00:30;77,5
2019-10-30 00:45;80,75
2019-10-30 01:00;77,3
2019-10-30 01:15;77
2019-10-30 01:30;75,9
2019-10-30 01:45;76,3
2019-10-30 02:00;75,95
2019-10-30 02:15;74,65
2019-10-30 02:30;75,6
2019-10-30 02:45;74,8
2019-10-30 03:00;79,8
2019-10-30 03:15;78
2019-10-30 03:30;76,3
2019-10-30 03:45;78,55
2019-10-30 04:00;78,05
2019-10-30 04:15;76,95
2019-10-30 04:30;76,45
2019-10-30 04:45;80,5
2019-10-30 05:00;78,15
2019-10-30 05:15;78,45
2019-10-30 05:30;78,3
2019-10-30 05:45;76,6
2019-10-30 06:00;76,15
2019-10-30 06:15;75,45
2019-10-30 06:30;75,35
2019-10-30 06:45;73,9
2019-10-30 07:00;74,7
2019-10-30 07:15;75
2019-10-30 07:30;76,65
2019-10-30 07:45;77,4
2019-10-30 08:00;84,35
2019-10-30 08:15;89,1
2019-10-30 08:30;94,95
2019-10-30 08:45;101,6
2019-10-30 09:00;101,25
2019-10-30 09:15;113,65
2019-10-30 09:30;134,5
2019-10-30 09:45;137,25
2019-10-30 10:00;139,85
2019-10-30 10:15;145,2
2019-10-30 10:30;151,95
2019-10-30 10:45;148,1
2019-10-30 11:00;148,3
2019-10-30 11:15;153,5
2019-10-30 11:30;162,75
2019-10-30 11:45;160,5
2019-10-30 12:00;161,15
2019-10-30 12:15;162,05
2019-10-30 12:30;161,5
2019-10-30 12:45;162,7
2019-10-30 13:00;163
2019-10-30 13:15;162,1
2019-10-30 13:30;163,45
2019-10-30 13:45;164,8
2019-10-30 14:00;156,35
2019-10-30 14:15;160,2
2019-10-30 14:30;155,3
2019-10-30 14:45;148,8
2019-10-30 15:00;148,5
2019-10-30 15:15;144,55
2019-10-30 15:30;146,95
2019-10-30 15:45;142,25
2019-10-30 16:00;145,5
2019-10-30 16:15;135,05
2019-10-30 16:30;132
2019-10-30 16:45;130,2
2019-10-30 17:00;123,75
2019-10-30 17:15;125,95
2019-10-30 17:30;121,7
2019-10-30 17:45;123,7
2019-10-30 18:00;129,05
2019-10-30 18:15;126,7
2019-10-30 18:30;124,1
2019-10-30 18:45;124,7
2019-10-30 19:00;126,65
2019-10-30 19:15;121,2
2019-10-30 19:30;113,85
2019-10-30 19:45;117,75
2019-10-30 20:00;115,3
2019-10-30 20:15;108,4
2019-10-30 20:30;105,1
2019-10-30 20:45;105,25
2019-10-30 21:00;99,05
2019-10-30 21:15;96,75
2019-10-30 21:30;95,25
2019-10-30 21:45;89,65
2019-10-30 22:00;85,05
2019-10-30 22:15;85,8
2019-10-30 22:30;80,4
2019-10-30 22:45;81,85
2019-10-30 23:00;88,7
2019-10-30 23:15;84,8
2019-10-30 23:30;85,6
2019-10-30 23:45;89,25
2019-10-31 00:00;80,1
2019-10-31 00:15;79,75
2019-10-31 00:30;80,9
2019-10-31 00:45;81,35
2019-10-31 01:00;83,1
2019-10-31 01:15;82,8
2019-10-31 01:30;81,55
2019-10-31 01:45;80,6
2019-10-31 02:00;81,9
2019-10-31 02:15;82,4
2019-10-31 02:30;80,6
2019-10-31 02:45;83,25
2019-10-31 03:00;82,2
2019-10-31 03:15;83,3
2019-10-31 03:30;82,8
2019-10-31 03:45;82,95
2019-10-31 04:00;84,9
2019-10-31 04:15;83,55
2019-10-31 04:30;84,9
2019-10-31 04:45;86,25
2019-10-31 05:00;82,7
2019-10-31 05:15;82,95
2019-10-31 05:30;77,25
2019-10-31 05:45;76,05
2019-10-31 06:00;72,65
2019-10-31 06:15;80,65
2019-10-31 06:30;83,85
2019-10-31 06:45;80,8
2019-10-31 07:00;78,05
2019-10-31 07:15;78,2
2019-10-31 07:30;76,55
2019-10-31 07:45;77,55
2019-10-31 08:00;83
2019-10-31 08:15;82,7
2019-10-31 08:30;84,35
2019-10-31 08:45;85,7
2019-10-31 09:00;87,25
2019-10-31 09:15;86,25
2019-10-31 09:30;88,85
2019-10-31 09:45;90,1
2019-10-31 10:00;89,85
2019-10-31 10:15;90,25
2019-10-31 10:30;87,25
2019-10-31 10:45;87,95
2019-10-31 11:00;91,1
2019-10-31 11:15;89,55
2019-10-31 11:30;91,3
2019-10-31 11:45;93,8
2019-10-31 12:00;95,65
2019-10-31 12:15;93,9
2019-10-31 12:30;90,8
2019-10-31 12:45;91,1
2019-10-31 13:00;92,05
2019-10-31 13:15;94,05
2019-10-31 13:30;92,8
2019-10-31 13:45;91,95
2019-10-31 14:00;91,75
2019-10-31 14:15;92,9
2019-10-31 14:30;92,8
2019-10-31 14:45;90,1
2019-10-31 15:00;89,35
2019-10-31 15:15;90,4
2019-10-31 15:30;86,2
2019-10-31 15:45;86,8
2019-10-31 16:00;86,25
2019-10-31 16:15;81,85
2019-10-31 16:30;84,05
2019-10-31 16:45;81,4
2019-10-31 17:00;84,6
2019-10-31 17:15;84,1
2019-10-31 17:30;83,1
2019-10-31 17:45;84,6
2019-10-31 18:00;86
2019-10-31 18:15;85,9
2019-10-31 18:30;85,4
2019-10-31 18:45;89,5
2019-10-31 19:00;91,85
2019-10-31 19:15;90,35
2019-10-31 19:30;90,65
2019-10-31 19:45;90,65
2019-10-31 20:00;93,1
2019-10-31 20:15;89,75
2019-10-31 20:30;89,5
2019-10-31 20:45;89,95
2019-10-31 21:00;90,55
2019-10-31 21:15;90,5
2019-10-31 21:30;88,75
2019-10-31 21:45;83,65
2019-10-31 22:00;80,25
2019-10-31 22:15;80,55
2019-10-31 22:30;78,7
2019-10-31 22:45;78,45
2019-10-31 23:00;84,15
2019-10-31 23:15;79,75
2019-10-31 23:30;84,7
2019-10-31 23:45;89
2019-11-01 00:00;80,95
2019-11-01 00:15;79,15
2019-11-01 00:30;77,45
2019-11-01 00:45;78,7
2019-11-01 01:00;75,75
2019-11-01 01:15;74,3
2019-11-01 01:30;72,8
2019-11-01 01:45;73,7
2019-11-01 02:00;72,95
2019-11-01 02:15;75,1
2019-11-01 02:30;73,7
2019-11-01 02:45;72
2019-11-01 03:00;76,45
2019-11-01 03:15;74,7
2019-11-01 03:30;74,2
2019-11-01 03:45;76,6
2019-11-01 04:00;75,1
2019-11-01 04:15;74,85
2019-11-01 04:30;77,15
2019-11-01 04:45;75,4
2019-11-01 05:00;75,4
2019-11-01 05:15;73,9
2019-11-01 05:30;71,15
2019-11-01 05:45;70,65
2019-11-01 06:00;72,4
2019-11-01 06:15;71
2019-11-01 06:30;71,3
2019-11-01 06:45;70,2
2019-11-01 07:00;75,2
2019-11-01 07:15;74,45
2019-11-01 07:30;76,75
2019-11-01 07:45;80,95
2019-11-01 08:00;79,35
2019-11-01 08:15;80,75
2019-11-01 08:30;80
2019-11-01 08:45;84,85
2019-11-01 09:00;80,15
2019-11-01 09:15;81,5
2019-11-01 09:30;84,45
2019-11-01 09:45;81,3
2019-11-01 10:00;81,6
2019-11-01 10:15;79,4
2019-11-01 10:30;79,8
2019-11-01 10:45;81,9
2019-11-01 11:00;85,7
2019-11-01 11:15;84,4
2019-11-01 11:30;83,2
2019-11-01 11:45;82,5
2019-11-01 12:00;85,15
2019-11-01 12:15;90,95
2019-11-01 12:30;90,1
2019-11-01 12:45;91,5
2019-11-01 13:00;92,6
2019-11-01 13:15;91,55
2019-11-01 13:30;94,95
2019-11-01 13:45;90,55
2019-11-01 14:00;92,45
2019-11-01 14:15;91,1
2019-11-01 14:30;89,8
2019-11-01 14:45;90,8
2019-11-01 15:00;86,9
2019-11-01 15:15;82,7
2019-11-01 15:30;80,45
2019-11-01 15:45;76,5
2019-11-01 16:00;81,35
2019-11-01 16:15;77,95
2019-11-01 16:30;77,05
2019-11-01 16:45;74,7
2019-11-01 17:00;77
2019-11-01 17:15;75,5
2019-11-01 17:30;78,5
2019-11-01 17:45;77,9
2019-11-01 18:00;85,15
2019-11-01 18:15;85,95
2019-11-01 18:30;85,1
2019-11-01 18:45;93,2
2019-11-01 19:00;92,9
2019-11-01 19:15;92,1
2019-11-01 19:30;95,2
2019-11-01 19:45;94,1
2019-11-01 20:00;94,7
2019-11-01 20:15;88
2019-11-01 20:30;90,75
2019-11-01 20:45;89,95
2019-11-01 21:00;89,55
2019-11-01 21:15;86,65
2019-11-01 21:30;85,4
2019-11-01 21:45;85,7
2019-11-01 22:00;86,45
2019-11-01 22:15;83,75
2019-11-01 22:30;80,85
2019-11-01 22:45;81,2
2019-11-01 23:00;86,55
2019-11-01 23:15;85,2
2019-11-01 23:30;88,15
2019-11-01 23:45;87,75
2019-11-02 00:00;75,9
2019-11-02 00:15;76,4
2019-11-02 00:30;77,2
2019-11-02 00:45;75,95
2019-11-02 01:00;74,15
2019-11-02 01:15;75,1
2019-11-02 01:30;76,7
2019-11-02 01:45;76,85
2019-11-02 02:00;74,65
2019-11-02 02:15;76,25
2019-11-02 02:30;77,45
2019-11-02 02:45;76,5
2019-11-02 03:00;76,75
2019-11-02 03:15;79,4
2019-11-02 03:30;78,35
2019-11-02 03:45;75,25
2019-11-02 04:00;74,55
2019-11-02 04:15;75,9
2019-11-02 04:30;75,3
2019-11-02 04:45;74,65
2019-11-02 05:00;71,55
2019-11-02 05:15;73,3
2019-11-02 05:30;70,85
2019-11-02 05:45;70,8
2019-11-02 06:00;70,25
2019-11-02 06:15;71,1
2019-11-02 06:30;71,75
2019-11-02 06:45;67,25
2019-11-02 07:00;63,8
2019-11-02 07:15;65,4
2019-11-02 07:30;63,75
2019-11-02 07:45;64,25
2019-11-02 08:00;65,45
2019-11-02 08:15;66,65
2019-11-02 08:30;69,55
2019-11-02 08:45;72
2019-11-02 09:00;70,35
2019-11-02 09:15;68,9
2019-11-02 09:30;69,4
2019-11-02 09:45;69,8
2019-11-02 10:00;68,9
2019-11-02 10:15;67,65
2019-11-02 10:30;69,45
2019-11-02 10:45;66,8
2019-11-02 11:00;68,1
2019-11-02 11:15;68,35
2019-11-02 11:30;70,55
2019-11-02 11:45;75,15
2019-11-02 12:00;74,35
2019-11-02 12:15;76
2019-11-02 12:30;76,2
2019-11-02 12:45;75,8
2019-11-02 13:00;76,8
2019-11-02 13:15;75,55
2019-11-02 13:30;75,65
2019-11-02 13:45;77,7
2019-11-02 14:00;77
2019-11-02 14:15;72,85
2019-11-02 14:30;76,1
2019-11-02 14:45;74,25
2019-11-02 15:00;73,2
2019-11-02 15:15;72,25
2019-11-02 15:30;70,9
2019-11-02 15:45;74,2
2019-11-02 16:00;69,65
2019-11-02 16:15;68,9
2019-11-02 16:30;69,5
2019-11-02 16:45;70,4
2019-11-02 17:00;73
2019-11-02 17:15;70,75
2019-11-02 17:30;70,95
2019-11-02 17:45;72,05
2019-11-02 18:00;76,15
2019-11-02 18:15;75,9
2019-11-02 18:30;74,7
2019-11-02 18:45;80,05
2019-11-02 19:00;79,9
2019-11-02 19:15;83,05
2019-11-02 19:30;83,4
2019-11-02 19:45;81,55
2019-11-02 20:00;83
2019-11-02 20:15;80,6
2019-11-02 20:30;82,85
2019-11-02 20:45;83,75
2019-11-02 21:00;83,5
2019-11-02 21:15;80,5
2019-11-02 21:30;77,4
2019-11-02 21:45;75,35
2019-11-02 22:00;76,7
2019-11-02 22:15;71,85
2019-11-02 22:30;73,95
2019-11-02 22:45;74,5
2019-11-02 23:00;79,5
2019-11-02 23:15;78,6
2019-11-02 23:30;80,4
2019-11-02 23:45;83,95
2019-11-03 00:00;76,6
2019-11-03 00:15;75,45
2019-11-03 00:30;78,05
2019-11-03 00:45;74,95
2019-11-03 01:00;75,4
2019-11-03 01:15;74,95
2019-11-03 01:30;74,55
2019-11-03 01:45;74
2019-11-03 02:00;71
2019-11-03 02:15;70,8
2019-11-03 02:30;70,8
2019-11-03 02:45;72,05
2019-11-03 03:00;72,3
2019-11-03 03:15;73,05
2019-11-03 03:30;72,3
2019-11-03 03:45;73,1
2019-11-03 04:00;73,6
2019-11-03 04:15;73,25
2019-11-03 04:30;72,5
2019-11-03 04:45;74,8
2019-11-03 05:00;75,35
2019-11-03 05:15;72,65
2019-11-03 05:30;70,95
2019-11-03 05:45;68,8
2019-11-03 06:00;69,45
2019-11-03 06:15;70,55
2019-11-03 06:30;68,65
2019-11-03 06:45;67,15
2019-11-03 07:00;65,3
2019-11-03 07:15;64,65
2019-11-03 07:30;62,1
2019-11-03 07:45;62,85
2019-11-03 08:00;64,1
2019-11-03 08:15;63,25
2019-11-03 08:30;68,25
2019-11-03 08:45;64,85
2019-11-03 09:00;64,45
2019-11-03 09:15;64,9
2019-11-03 09:30;69,25
2019-11-03 09:45;69,1
2019-11-03 10:00;67,5
2019-11-03 10:15;69,65
2019-11-03 10:30;69,65
2019-11-03 10:45;68,95
2019-11-03 11:00;68,2
2019-11-03 11:15;67,75
2019-11-03 11:30;68,75
2019-11-03 11:45;70,9
2019-11-03 12:00;69,7
2019-11-03 12:15;66,35
2019-11-03 12:30;66,3
2019-11-03 12:45;67,55
2019-11-03 13:00;65,6
2019-11-03 13:15;65,1
2019-11-03 13:30;69,65
2019-11-03 13:45;69
2019-11-03 14:00;68,75
2019-11-03 14:15;71,35
2019-11-03 14:30;69,15
2019-11-03 14:45;67,95
2019-11-03 15:00;69,25
2019-11-03 15:15;68,1
2019-11-03 15:30;69,8
2019-11-03 15:45;70,65
2019-11-03 16:00;69,75
2019-11-03 16:15;68,7
2019-11-03 16:30;66,7
2019-11-03 16:45;69,15
2019-11-03 17:00;69,15
2019-11-03 17:15;69,8
2019-11-03 17:30;69,75
2019-11-03 17:45;71,55
2019-11-03 18:00;73
2019-11-03 18:15;72,5
2019-11-03 18:30;73,95
2019-11-03 18:45;77,2
2019-11-03 19:00;78,6
2019-11-03 19:15;78,55
2019-11-03 19:30;81,35
2019-11-03 19:45;80,05
2019-11-03 20:00;78,7
2019-11-03 20:15;77,5
2019-11-03 20:30;79,5
2019-11-03 20:45;81,1
2019-11-03 21:00;78,95
2019-11-03 21:15;82,2
2019-11-03 21:30;79,1
2019-11-03 21:45;80,15
2019-11-03 22:00;77,6
2019-11-03 22:15;76,7
2019-11-03 22:30;73,55
2019-11-03 22:45;73,95
2019-11-03 23:00;80,8
2019-11-03 23:15;78,25
2019-11-03 23:30;81,15
2019-11-03 23:45;83,7

